User: anonymous   Login
Location: Altenst�hlen
(53.5567°N, 8.9425°E)
Time: 02:17:55
(UTC+00:00)
Language:

STARLINK-40 - Orbit

View from above orbital plane
View from above orbital plane
View from above satellite
View from above satellite

Ground track
Ground track

The orbit data is extracted from the following two-line orbital elements,

1 44258U 19029Z   19344.83334491  .00252466  00000-0  14012-1 0  9994
2 44258  52.9998 350.4822 0001439  97.6410  40.2325 15.12088248 30395
Epoch (UTC): 10 December 2019 20:00:01
Eccentricity: 0.0001439
inclination: 52.9998°
perigee height: 529 km
apogee height: 531 km
right ascension of ascending node: 350.4822°
argument of perigee: 97.6410°
revolutions per day: 15.12088248
mean anomaly at epoch: 40.2325°
orbit number at epoch: 3039

The dashed part of the orbit path shows where the satellite is in the earth's shadow,  

DLR